QPF
0.00 0.00 0.00 0.01 0.02 0.02 0.01 0.00 0.00 0.00 0.00 0.00 0.00 0.00 0.00 0.00 0.01 0.02 0.02 0.02 0.01 0.01 0.01 0.01 0.02 0.02 0.02 0.02 0.02 0.03 0.04 0.03 0.02 0.01 0.01 0.01 0.01 0.01 0.01 0.01 0.01 0.01 0.01 0.01 0.00 0.00 0.01 0.00 0.00
0.00 0.01 0.01 0.01 0.03 0.02 0.01 0.00 0.00 0.00 0.00 0.00 0.00 0.00 0.00 0.00 0.00 0.01 0.01 0.01 0.01 0.01 0.01 0.01 0.01 0.02 0.02 0.03 0.03 0.03 0.04 0.04 0.03 0.02 0.01 0.01 0.01 0.01 0.01 0.01 0.01 0.01 0.01 0.01 0.01 0.01 0.01 0.01 0.00
0.01 0.01 0.01 0.02 0.03 0.02 0.01 0.01 0.01 0.01 0.01 0.00 0.00 0.00 0.00 0.00 0.00 0.01 0.01 0.01 0.00 0.01 0.01 0.01 0.02 0.02 0.02 0.02 0.03 0.04 0.05 0.04 0.04 0.03 0.02 0.01 0.01 0.01 0.02 0.02 0.02 0.01 0.01 0.01 0.01 0.01 0.01 0.01 0.00
0.01 0.02 0.03 0.03 0.02 0.01 0.01 0.01 0.01 0.01 0.01 0.00 0.00 0.01 0.00 0.00 0.00 0.00 0.00 0.00 0.01 0.01 0.01 0.01 0.01 0.02 0.02 0.02 0.02 0.02 0.04 0.04 0.04 0.03 0.02 0.01 0.01 0.01 0.02 0.03 0.02 0.01 0.01 0.02 0.01 0.01 0.01 0.01 0.00
0.02 0.02 0.03 0.03 0.01 0.01 0.01 0.01 0.01 0.01 0.00 0.00 0.00 0.01 0.01 0.00 0.00 0.00 0.00 0.01 0.01 0.01 0.01 0.01 0.01 0.01 0.01 0.02 0.02 0.02 0.03 0.03 0.03 0.02 0.01 0.01 0.01 0.01 0.02 0.02 0.01 0.01 0.01 0.02 0.02 0.02 0.01 0.01 0.00
0.02 0.03 0.04 0.03 0.01 0.01 0.01 0.01 0.01 0.01 0.01 0.00 0.00 0.01 0.01 0.00 0.00 0.01 0.01 0.00 0.01 0.01 0.01 0.01 0.01 0.01 0.01 0.01 0.01 0.01 0.02 0.02 0.02 0.03 0.02 0.02 0.01 0.01 0.02 0.01 0.01 0.01 0.01 0.01 0.02 0.01 0.01 0.01 0.01
0.02 0.03 0.03 0.03 0.02 0.01 0.01 0.01 0.01 0.01 0.01 0.01 0.01 0.01 0.01 0.01 0.01 0.01 0.01 0.01 0.01 0.02 0.03 0.02 0.02 0.03 0.02 0.01 0.01 0.01 0.01 0.02 0.02 0.03 0.03 0.03 0.02 0.02 0.02 0.01 0.01 0.01 0.01 0.01 0.01 0.01 0.01 0.01 0.00
0.02 0.03 0.03 0.03 0.02 0.02 0.02 0.02 0.01 0.01 0.01 0.01 0.01 0.01 0.02 0.01 0.02 0.03 0.03 0.03 0.04 0.04 0.05 0.04 0.04 0.04 0.04 0.03 0.02 0.01 0.01 0.01 0.02 0.03 0.02 0.02 0.03 0.03 0.03 0.03 0.02 0.01 0.01 0.01 0.01 0.01 0.01 0.00 0.00
0.02 0.04 0.03 0.02 0.02 0.02 0.02 0.02 0.01 0.01 0.02 0.02 0.01 0.01 0.02 0.02 0.02 0.04 0.04 0.04 0.05 0.04 0.05 0.05 0.05 0.05 0.04 0.03 0.03 0.02 0.01 0.01 0.01 0.01 0.01 0.01 0.01 0.02 0.03 0.03 0.02 0.02 0.01 0.01 0.01 0.01 0.00 0.00 0.00
0.02 0.03 0.02 0.02 0.02 0.02 0.02 0.02 0.02 0.02 0.03 0.04 0.04 0.02 0.02 0.02 0.02 0.03 0.04 0.04 0.04 0.04 0.04 0.04 0.05 0.06 0.05 0.03 0.02 0.03 0.03 0.02 0.02 0.01 0.01 0.01 0.01 0.01 0.02 0.03 0.03 0.02 0.01 0.01 0.01 0.00 0.01 0.01 0.01
0.02 0.02 0.01 0.01 0.02 0.02 0.02 0.02 0.02 0.03 0.03 0.04 0.04 0.05 0.03 0.02 0.02 0.02 0.04 0.05 0.04 0.04 0.05 0.04 0.04 0.04 0.05 0.04 0.03 0.03 0.03 0.03 0.04 0.03 0.02 0.02 0.02 0.02 0.01 0.02 0.03 0.02 0.02 0.02 0.01 0.01 0.01 0.01 0.01
0.02 0.02 0.01 0.01 0.02 0.02 0.02 0.02 0.02 0.03 0.03 0.03 0.03 0.03 0.04 0.04 0.03 0.03 0.04 0.07 0.06 0.06 0.06 0.06 0.04 0.05 0.05 0.04 0.03 0.03 0.03 0.03 0.03 0.04 0.04 0.03 0.03 0.02 0.02 0.02 0.02 0.02 0.02 0.02 0.02 0.02 0.02 0.01 0.01
0.02 0.02 0.02 0.02 0.02 0.03 0.04 0.03 0.02 0.03 0.02 0.02 0.02 0.02 0.03 0.03 0.04 0.04 0.05 0.08 0.08 0.07 0.07 0.06 0.04 0.04 0.05 0.04 0.02 0.03 0.03 0.02 0.02 0.03 0.03 0.03 0.03 0.03 0.02 0.02 0.02 0.02 0.02 0.01 0.01 0.01 0.01 0.01 0.01
0.02 0.02 0.03 0.03 0.03 0.02 0.04 0.04 0.02 0.03 0.02 0.01 0.02 0.02 0.03 0.03 0.06 0.06 0.05 0.07 0.09 0.09 0.10 0.09 0.05 0.03 0.03 0.02 0.02 0.02 0.02 0.02 0.02 0.02 0.02 0.02 0.02 0.02 0.02 0.02 0.02 0.01 0.01 0.01 0.01 0.01 0.01 0.01 0.01
0.02 0.03 0.03 0.04 0.03 0.03 0.04 0.04 0.03 0.02 0.02 0.02 0.02 0.03 0.03 0.04 0.06 0.09 0.07 0.05 0.07 0.09 0.10 0.10 0.06 0.03 0.02 0.02 0.02 0.03 0.02 0.02 0.02 0.02 0.02 0.03 0.03 0.02 0.02 0.02 0.01 0.01 0.01 0.00 0.00 0.00 0.00 0.01 0.01
0.04 0.04 0.06 0.05 0.04 0.03 0.04 0.04 0.04 0.04 0.03 0.02 0.03 0.04 0.03 0.04 0.06 0.08 0.08 0.06 0.07 0.10 0.11 0.10 0.07 0.03 0.02 0.01 0.01 0.03 0.02 0.02 0.02 0.02 0.03 0.03 0.03 0.03 0.03 0.02 0.01 0.01 0.01 0.01 0.00 0.00 0.00 0.00 0.00
0.06 0.06 0.06 0.05 0.03 0.03 0.03 0.04 0.04 0.05 0.04 0.03 0.03 0.04 0.03 0.02 0.04 0.06 0.06 0.06 0.07 0.09 0.10 0.10 0.07 0.04 0.03 0.02 0.01 0.02 0.02 0.02 0.02 0.03 0.03 0.03 0.03 0.03 0.02 0.02 0.02 0.02 0.01 0.00 0.00 0.00 0.00 0.00 0.00
0.05 0.05 0.05 0.03 0.02 0.02 0.02 0.03 0.04 0.04 0.05 0.03 0.04 0.04 0.03 0.02 0.02 0.03 0.03 0.03 0.06 0.09 0.09 0.07 0.05 0.04 0.04 0.03 0.03 0.02 0.02 0.03 0.04 0.04 0.03 0.03 0.03 0.03 0.03 0.04 0.04 0.03 0.02 0.01 0.01 0.01 0.01 0.01 0.01
0.03 0.04 0.03 0.02 0.02 0.02 0.03 0.03 0.04 0.04 0.04 0.04 0.03 0.04 0.04 0.03 0.02 0.01 0.02 0.02 0.04 0.07 0.08 0.05 0.04 0.05 0.05 0.04 0.04 0.03 0.03 0.04 0.04 0.05 0.05 0.05 0.04 0.04 0.03 0.03 0.03 0.04 0.03 0.02 0.02 0.01 0.01 0.02 0.02
0.04 0.04 0.02 0.02 0.02 0.02 0.02 0.03 0.04 0.04 0.04 0.04 0.03 0.03 0.04 0.04 0.03 0.02 0.02 0.02 0.03 0.05 0.06 0.05 0.04 0.05 0.05 0.05 0.04 0.04 0.03 0.04 0.04 0.05 0.06 0.07 0.08 0.07 0.05 0.04 0.03 0.03 0.03 0.02 0.02 0.02 0.02 0.02 0.03
0.04 0.03 0.02 0.02 0.02 0.02 0.03 0.04 0.05 0.04 0.04 0.04 0.04 0.03 0.03 0.03 0.04 0.02 0.02 0.02 0.02 0.02 0.03 0.04 0.04 0.05 0.06 0.05 0.05 0.05 0.04 0.02 0.02 0.02 0.03 0.04 0.06 0.07 0.07 0.06 0.04 0.04 0.04 0.03 0.03 0.04 0.05 0.05 0.04
0.04 0.03 0.02 0.02 0.03 0.03 0.03 0.05 0.05 0.04 0.04 0.03 0.03 0.02 0.02 0.01 0.01 0.02 0.01 0.01 0.01 0.01 0.02 0.02 0.03 0.03 0.04 0.06 0.06 0.04 0.04 0.03 0.02 0.01 0.02 0.02 0.04 0.05 0.07 0.07 0.05 0.04 0.04 0.03 0.02 0.02 0.03 0.03 0.04
0.03 0.02 0.02 0.03 0.03 0.03 0.02 0.03 0.03 0.02 0.02 0.01 0.01 0.01 0.01 0.01 0.01 0.01 0.01 0.01 0.01 0.01 0.01 0.01 0.01 0.02 0.02 0.03 0.05 0.07 0.05 0.03 0.02 0.02 0.02 0.03 0.03 0.02 0.04 0.05 0.05 0.05 0.03 0.02 0.02 0.02 0.02 0.02 0.03
0.03 0.04 0.03 0.03 0.04 0.04 0.02 0.01 0.01 0.01 0.01 0.01 0.01 0.00 0.00 0.00 0.00 0.01 0.01 0.01 0.01 0.01 0.00 0.00 0.00 0.01 0.02 0.02 0.02 0.04 0.06 0.07 0.04 0.02 0.01 0.01 0.01 0.01 0.02 0.03 0.04 0.05 0.05 0.03 0.02 0.02 0.02 0.03 0.03
0.04 0.05 0.07 0.07 0.06 0.04 0.01 0.01 0.01 0.00 0.00 0.00 0.00 0.00 0.00 0.00 0.00 0.00 0.01 0.01 0.01 0.01 0.00 0.00 0.00 0.01 0.01 0.01 0.01 0.01 0.02 0.04 0.06 0.04 0.02 0.01 0.02 0.02 0.02 0.02 0.03 0.03 0.04 0.03 0.03 0.02 0.02 0.02 0.02
0.05 0.04 0.04 0.04 0.02 0.01 0.01 0.01 0.01 0.00 0.00 0.00 0.00 0.00 0.00 0.00 0.00 0.00 0.00 0.00 0.01 0.01 0.00 0.00 0.00 0.01 0.01 0.02 0.01 0.01 0.02 0.03 0.04 0.05 0.04 0.02 0.01 0.02 0.02 0.02 0.03 0.04 0.04 0.04 0.04 0.04 0.03 0.03 0.03
0.03 0.02 0.01 0.01 0.01 0.01 0.01 0.01 0.00 0.00 0.00 0.00 0.00 0.00 0.00 0.00 0.00 0.00 0.00 0.00 0.00 0.00 0.00 0.00 0.00 0.01 0.01 0.02 0.01 0.02 0.02 0.04 0.07 0.06 0.04 0.03 0.02 0.02 0.02 0.02 0.02 0.03 0.04 0.05 0.06 0.05 0.04 0.03 0.03
0.01 0.01 0.01 0.01 0.02 0.01 0.01 0.01 0.00 0.00 0.00 0.00 0.00 0.00 0.00 0.00 0.00 0.00 0.00 0.00 0.00 0.00 0.00 0.00 0.00 0.01 0.02 0.03 0.03 0.03 0.04 0.05 0.07 0.07 0.05 0.05 0.04 0.03 0.03 0.02 0.02 0.03 0.03 0.04 0.04 0.04 0.04 0.03 0.03
0.01 0.01 0.01 0.01 0.01 0.01 0.01 0.00 0.00 0.00 0.00 0.00 0.00 0.00 0.00 0.00 0.00 0.00 0.00 0.00 0.00 0.00 0.01 0.01 0.01 0.01 0.02 0.04 0.04 0.04 0.04 0.04 0.05 0.07 0.06 0.04 0.04 0.04 0.04 0.04 0.04 0.04 0.04 0.04 0.04 0.04 0.03 0.02 0.01
0.01 0.01 0.01 0.00 0.00 0.00 0.00 0.00 0.00 0.00 0.00 0.00 0.00 0.00 0.00 0.00 0.00 0.00 0.00 0.00 0.00 0.00 0.00 0.01 0.01 0.01 0.01 0.02 0.03 0.03 0.03 0.03 0.04 0.06 0.05 0.04 0.04 0.04 0.03 0.04 0.05 0.04 0.04 0.03 0.03 0.02 0.02 0.01 0.01
MSLP
1013.65 1013.93 1014.69 1015.91 1017.47 1019.22 1020.96 1022.50 1023.71 1024.55 1025.06 1025.37 1025.65 1026.05 1026.65 1027.49 1028.51 1029.57 1030.50 1031.16 1031.46 1031.37 1030.94 1030.28 1029.53 1028.81 1028.21 1027.76 1027.46 1027.24 1027.05 1026.83 1026.56 1026.24 1025.90 1025.58 1025.30 1025.08 1024.90 1024.73 1024.56 1024.35 1024.11 1023.84 1023.57 1023.32 1023.11 1022.93 1022.77
1014.10 1014.60 1015.56 1016.93 1018.58 1020.34 1022.01 1023.43 1024.49 1025.19 1025.60 1025.88 1026.17 1026.62 1027.31 1028.24 1029.31 1030.39 1031.30 1031.92 1032.15 1031.99 1031.51 1030.81 1030.05 1029.33 1028.74 1028.32 1028.03 1027.82 1027.65 1027.45 1027.22 1026.95 1026.67 1026.40 1026.17 1025.97 1025.79 1025.61 1025.38 1025.11 1024.80 1024.46 1024.14 1023.84 1023.59 1023.38 1023.18
1014.59 1015.28 1016.40 1017.88 1019.56 1021.27 1022.84 1024.11 1025.04 1025.62 1025.97 1026.25 1026.59 1027.13 1027.91 1028.91 1030.02 1031.09 1031.96 1032.51 1032.68 1032.47 1031.96 1031.26 1030.52 1029.84 1029.30 1028.90 1028.63 1028.44 1028.28 1028.10 1027.88 1027.64 1027.40 1027.17 1026.97 1026.79 1026.60 1026.38 1026.11 1025.79 1025.41 1025.02 1024.64 1024.30 1024.02 1023.77 1023.55
1015.10 1015.94 1017.18 1018.70 1020.36 1021.99 1023.42 1024.55 1025.36 1025.86 1026.20 1026.51 1026.94 1027.56 1028.42 1029.45 1030.56 1031.58 1032.38 1032.85 1032.95 1032.71 1032.21 1031.56 1030.90 1030.31 1029.85 1029.51 1029.29 1029.11 1028.94 1028.75 1028.53 1028.30 1028.06 1027.85 1027.66 1027.48 1027.29 1027.05 1026.75 1026.38 1025.97 1025.54 1025.12 1024.75 1024.44 1024.17 1023.93
1015.63 1016.59 1017.88 1019.40 1020.99 1022.49 1023.79 1024.79 1025.50 1025.98 1026.34 1026.73 1027.24 1027.94 1028.84 1029.87 1030.92 1031.84 1032.53 1032.90 1032.94 1032.69 1032.25 1031.70 1031.17 1030.72 1030.38 1030.14 1029.97 1029.81 1029.63 1029.42 1029.16 1028.90 1028.65 1028.43 1028.23 1028.05 1027.85 1027.60 1027.29 1026.91 1026.48 1026.04 1025.61 1025.23 1024.90 1024.63 1024.38
1016.23 1017.26 1018.56 1020.02 1021.50 1022.86 1024.01 1024.90 1025.56 1026.04 1026.47 1026.94 1027.55 1028.31 1029.22 1030.20 1031.14 1031.92 1032.45 1032.71 1032.69 1032.46 1032.10 1031.70 1031.35 1031.08 1030.89 1030.77 1030.66 1030.52 1030.32 1030.06 1029.76 1029.46 1029.17 1028.92 1028.72 1028.53 1028.33 1028.08 1027.78 1027.41 1026.99 1026.55 1026.14 1025.76 1025.44 1025.16 1024.91
1016.99 1018.04 1019.30 1020.66 1021.98 1023.18 1024.19 1024.98 1025.61 1026.13 1026.64 1027.22 1027.91 1028.73 1029.61 1030.50 1031.28 1031.89 1032.26 1032.40 1032.33 1032.12 1031.87 1031.63 1031.47 1031.38 1031.36 1031.35 1031.31 1031.19 1030.97 1030.68 1030.33 1029.97 1029.65 1029.38 1029.16 1028.96 1028.77 1028.53 1028.24 1027.89 1027.50 1027.09 1026.70 1026.34 1026.03 1025.76 1025.51
1017.94 1018.99 1020.17 1021.38 1022.53 1023.55 1024.41 1025.12 1025.73 1026.30 1026.90 1027.58 1028.36 1029.19 1030.04 1030.81 1031.43 1031.85 1032.06 1032.08 1031.96 1031.79 1031.64 1031.55 1031.57 1031.66 1031.78 1031.88 1031.89 1031.79 1031.56 1031.23 1030.85 1030.46 1030.12 1029.83 1029.60 1029.41 1029.21 1028.99 1028.72 1028.39 1028.03 1027.65 1027.28 1026.94 1026.64 1026.38 1026.14
1019.10 1020.13 1021.20 1022.25 1023.20 1024.03 1024.73 1025.36 1025.94 1026.56 1027.25 1028.02 1028.85 1029.69 1030.48 1031.14 1031.61 1031.86 1031.93 1031.85 1031.69 1031.56 1031.49 1031.54 1031.69 1031.92 1032.14 1032.31 1032.36 1032.27 1032.04 1031.70 1031.31 1030.92 1030.58 1030.30 1030.08 1029.89 1029.70 1029.49 1029.22 1028.91 1028.56 1028.20 1027.84 1027.52 1027.23 1026.97 1026.74
1020.43 1021.41 1022.36 1023.23 1023.98 1024.61 1025.17 1025.69 1026.25 1026.89 1027.63 1028.46 1029.33 1030.16 1030.89 1031.45 1031.79 1031.92 1031.88 1031.73 1031.57 1031.47 1031.48 1031.61 1031.86 1032.15 1032.43 1032.63 1032.69 1032.60 1032.38 1032.05 1031.69 1031.34 1031.03 1030.79 1030.59 1030.42 1030.24 1030.02 1029.75 1029.43 1029.08 1028.72 1028.37 1028.05 1027.76 1027.51 1027.27
1021.81 1022.73 1023.56 1024.25 1024.81 1025.26 1025.67 1026.09 1026.61 1027.24 1028.00 1028.84 1029.71 1030.52 1031.19 1031.66 1031.92 1031.97 1031.88 1031.71 1031.57 1031.51 1031.57 1031.76 1032.04 1032.35 1032.63 1032.81 1032.86 1032.77 1032.56 1032.28 1031.97 1031.70 1031.46 1031.28 1031.13 1030.98 1030.80 1030.57 1030.28 1029.94 1029.58 1029.20 1028.85 1028.52 1028.22 1027.95 1027.70
1023.09 1023.96 1024.67 1025.21 1025.60 1025.89 1026.17 1026.50 1026.95 1027.54 1028.28 1029.10 1029.93 1030.68 1031.29 1031.71 1031.91 1031.94 1031.85 1031.71 1031.61 1031.61 1031.71 1031.93 1032.21 1032.49 1032.72 1032.85 1032.87 1032.77 1032.59 1032.37 1032.16 1031.98 1031.84 1031.74 1031.65 1031.53 1031.36 1031.11 1030.80 1030.43 1030.04 1029.64 1029.27 1028.92 1028.61 1028.32 1028.06
1024.16 1024.96 1025.57 1025.99 1026.25 1026.42 1026.60 1026.84 1027.23 1027.76 1028.43 1029.18 1029.94 1030.62 1031.16 1031.52 1031.71 1031.75 1031.70 1031.64 1031.62 1031.68 1031.83 1032.06 1032.31 1032.54 1032.70 1032.77 1032.75 1032.64 1032.49 1032.35 1032.24 1032.17 1032.14 1032.14 1032.11 1032.02 1031.86 1031.60 1031.27 1030.88 1030.46 1030.04 1029.65 1029.29 1028.96 1028.65 1028.36
1024.90 1025.65 1026.17 1026.50 1026.69 1026.80 1026.91 1027.10 1027.42 1027.88 1028.46 1029.10 1029.74 1030.32 1030.78 1031.09 1031.27 1031.35 1031.38 1031.42 1031.50 1031.65 1031.85 1032.09 1032.32 1032.49 1032.59 1032.59 1032.53 1032.43 1032.32 1032.25 1032.24 1032.28 1032.36 1032.44 1032.47 1032.42 1032.27 1032.01 1031.67 1031.26 1030.84 1030.42 1030.02 1029.66 1029.32 1028.99 1028.67
1025.33 1026.00 1026.47 1026.76 1026.91 1027.01 1027.11 1027.27 1027.54 1027.93 1028.40 1028.91 1029.41 1029.85 1030.21 1030.47 1030.64 1030.77 1030.89 1031.03 1031.22 1031.46 1031.73 1031.99 1032.20 1032.34 1032.39 1032.36 1032.28 1032.18 1032.12 1032.13 1032.20 1032.33 1032.50 1032.64 1032.72 1032.70 1032.56 1032.31 1031.98 1031.59 1031.18 1030.78 1030.41 1030.06 1029.72 1029.38 1029.04
1025.52 1026.11 1026.54 1026.81 1026.98 1027.09 1027.22 1027.39 1027.63 1027.94 1028.29 1028.66 1029.01 1029.31 1029.55 1029.74 1029.90 1030.06 1030.25 1030.49 1030.79 1031.12 1031.45 1031.75 1031.97 1032.10 1032.14 1032.10 1032.03 1031.97 1031.95 1032.01 1032.15 1032.35 1032.56 1032.74 1032.85 1032.85 1032.73 1032.51 1032.20 1031.85 1031.49 1031.14 1030.81 1030.50 1030.18 1029.85 1029.50
1025.60 1026.10 1026.48 1026.75 1026.96 1027.12 1027.29 1027.48 1027.70 1027.94 1028.18 1028.41 1028.61 1028.76 1028.89 1028.99 1029.12 1029.30 1029.54 1029.86 1030.24 1030.64 1031.04 1031.38 1031.64 1031.80 1031.85 1031.85 1031.81 1031.79 1031.83 1031.93 1032.11 1032.34 1032.57 1032.76 1032.87 1032.88 1032.78 1032.59 1032.34 1032.06 1031.77 1031.50 1031.24 1030.98 1030.70 1030.39 1030.04
1025.71 1026.11 1026.44 1026.71 1026.94 1027.15 1027.36 1027.56 1027.75 1027.93 1028.07 1028.17 1028.22 1028.24 1028.26 1028.29 1028.38 1028.55 1028.82 1029.18 1029.61 1030.07 1030.52 1030.91 1031.21 1031.42 1031.54 1031.59 1031.61 1031.65 1031.74 1031.88 1032.07 1032.30 1032.52 1032.69 1032.79 1032.81 1032.74 1032.59 1032.41 1032.21 1032.02 1031.83 1031.66 1031.47 1031.25 1030.98 1030.65
1025.96 1026.26 1026.52 1026.76 1027.00 1027.22 1027.43 1027.62 1027.77 1027.87 1027.91 1027.89 1027.83 1027.74 1027.66 1027.64 1027.69 1027.86 1028.13 1028.50 1028.95 1029.44 1029.91 1030.34 1030.69 1030.96 1031.15 1031.29 1031.39 1031.50 1031.64 1031.81 1032.00 1032.21 1032.39 1032.54 1032.62 1032.64 1032.60 1032.52 1032.42 1032.31 1032.22 1032.14 1032.05 1031.94 1031.78 1031.56 1031.26
1026.42 1026.60 1026.78 1026.96 1027.15 1027.33 1027.50 1027.62 1027.69 1027.69 1027.63 1027.50 1027.34 1027.19 1027.06 1027.00 1027.04 1027.20 1027.47 1027.84 1028.28 1028.76 1029.23 1029.68 1030.07 1030.40 1030.67 1030.90 1031.09 1031.27 1031.46 1031.65 1031.84 1032.02 1032.18 1032.29 1032.37 1032.40 1032.40 1032.38 1032.37 1032.37 1032.38 1032.39 1032.38 1032.34 1032.24 1032.06 1031.81
1027.06 1027.13 1027.21 1027.30 1027.39 1027.48 1027.53 1027.53 1027.46 1027.33 1027.14 1026.92 1026.69 1026.50 1026.36 1026.31 1026.37 1026.54 1026.81 1027.17 1027.58 1028.03 1028.48 1028.93 1029.34 1029.71 1030.05 1030.36 1030.64 1030.90 1031.13 1031.35 1031.54 1031.70 1031.83 1031.93 1032.01 1032.07 1032.13 1032.19 1032.27 1032.37 1032.47 1032.56 1032.62 1032.63 1032.58 1032.45 1032.24
1027.81 1027.78 1027.76 1027.74 1027.69 1027.62 1027.49 1027.30 1027.05 1026.75 1026.42 1026.10 1025.82 1025.62 1025.51 1025.51 1025.62 1025.83 1026.11 1026.46 1026.84 1027.25 1027.66 1028.08 1028.49 1028.89 1029.28 1029.65 1030.00 1030.33 1030.61 1030.85 1031.05 1031.20 1031.33 1031.43 1031.53 1031.64 1031.78 1031.93 1032.11 1032.30 1032.48 1032.63 1032.74 1032.79 1032.76 1032.67 1032.51
1028.57 1028.48 1028.36 1028.22 1028.02 1027.75 1027.40 1026.97 1026.49 1025.98 1025.49 1025.07 1024.75 1024.56 1024.50 1024.58 1024.77 1025.04 1025.36 1025.71 1026.07 1026.43 1026.79 1027.17 1027.55 1027.96 1028.37 1028.79 1029.19 1029.56 1029.89 1030.15 1030.36 1030.53 1030.67 1030.80 1030.95 1031.13 1031.35 1031.60 1031.88 1032.15 1032.40 1032.60 1032.73 1032.79 1032.78 1032.71 1032.59
1029.25 1029.13 1028.96 1028.70 1028.35 1027.88 1027.29 1026.60 1025.86 1025.12 1024.46 1023.92 1023.55 1023.38 1023.39 1023.56 1023.84 1024.19 1024.57 1024.94 1025.28 1025.60 1025.91 1026.23 1026.58 1026.97 1027.38 1027.82 1028.25 1028.65 1029.01 1029.30 1029.52 1029.71 1029.87 1030.05 1030.26 1030.52 1030.84 1031.19 1031.56 1031.91 1032.21 1032.44 1032.59 1032.66 1032.65 1032.59 1032.51
1029.80 1029.70 1029.50 1029.18 1028.69 1028.04 1027.21 1026.27 1025.28 1024.31 1023.46 1022.80 1022.38 1022.21 1022.28 1022.53 1022.91 1023.35 1023.78 1024.18 1024.52 1024.80 1025.07 1025.34 1025.64 1025.99 1026.40 1026.83 1027.27 1027.68 1028.05 1028.35 1028.59 1028.80 1029.00 1029.22 1029.50 1029.84 1030.24 1030.69 1031.14 1031.56 1031.91 1032.17 1032.33 1032.39 1032.38 1032.33 1032.28
1030.21 1030.17 1029.99 1029.64 1029.06 1028.26 1027.25 1026.08 1024.86 1023.68 1022.66 1021.87 1021.39 1021.21 1021.30 1021.62 1022.08 1022.59 1023.08 1023.49 1023.83 1024.10 1024.32 1024.54 1024.80 1025.11 1025.49 1025.90 1026.33 1026.74 1027.10 1027.41 1027.66 1027.88 1028.11 1028.37 1028.70 1029.11 1029.59 1030.12 1030.64 1031.12 1031.51 1031.80 1031.96 1032.03 1032.02 1031.98 1031.95
1030.52 1030.55 1030.42 1030.07 1029.45 1028.55 1027.40 1026.07 1024.66 1023.31 1022.14 1021.24 1020.69 1020.47 1020.58 1020.93 1021.43 1021.98 1022.50 1022.94 1023.28 1023.52 1023.71 1023.90 1024.11 1024.38 1024.72 1025.11 1025.51 1025.90 1026.25 1026.55 1026.80 1027.02 1027.26 1027.55 1027.92 1028.38 1028.91 1029.49 1030.06 1030.59 1031.02 1031.33 1031.52 1031.60 1031.61 1031.59 1031.58
1030.76 1030.86 1030.78 1030.45 1029.82 1028.87 1027.64 1026.20 1024.68 1023.21 1021.93 1020.94 1020.32 1020.07 1020.15 1020.49 1021.00 1021.56 1022.09 1022.53 1022.85 1023.08 1023.25 1023.40 1023.58 1023.82 1024.12 1024.47 1024.85 1025.22 1025.55 1025.83 1026.06 1026.29 1026.53 1026.82 1027.20 1027.68 1028.24 1028.84 1029.45 1030.01 1030.47 1030.81 1031.03 1031.14 1031.17 1031.18 1031.20
1030.95 1031.09 1031.04 1030.72 1030.09 1029.12 1027.86 1026.38 1024.81 1023.29 1021.96 1020.92 1020.24 1019.95 1019.99 1020.30 1020.78 1021.32 1021.83 1022.25 1022.55 1022.76 1022.90 1023.03 1023.18 1023.39 1023.66 1023.99 1024.34 1024.68 1024.99 1025.25 1025.48 1025.69 1025.92 1026.21 1026.59 1027.06 1027.61 1028.22 1028.83 1029.40 1029.89 1030.26 1030.51 1030.66 1030.74 1030.78 1030.84
1031.12 1031.22 1031.14 1030.80 1030.15 1029.18 1027.92 1026.45 1024.90 1023.39 1022.06 1021.02 1020.33 1020.00 1020.00 1020.27 1020.70 1021.18 1021.65 1022.03 1022.30 1022.49 1022.61 1022.71 1022.84 1023.03 1023.28 1023.58 1023.91 1024.24 1024.54 1024.79 1025.01 1025.21 1025.44 1025.72 1026.08 1026.53 1027.06 1027.65 1028.25 1028.82 1029.31 1029.71 1030.00 1030.20 1030.32 1030.41 1030.49
Thickness
5696 5705 5710 5705 5691 5681 5677 5685 5693 5691 5691 5694 5697 5695 5685 5675 5671 5660 5662 5668 5668 5668 5667 5667 5667 5667 5667 5668 5668 5668 5668 5668 5668 5667 5667 5667 5667 5667 5666 5666 5666 5666 5665 5665 5665 5664 5663 5663 5663
5693 5701 5701 5694 5679 5668 5671 5681 5683 5685 5687 5691 5690 5688 5681 5667 5664 5660 5660 5663 5664 5664 5663 5662 5662 5663 5663 5663 5664 5664 5664 5664 5663 5663 5663 5662 5662 5662 5662 5662 5661 5661 5661 5661 5660 5660 5659 5659 5658
5691 5697 5688 5681 5671 5664 5667 5677 5678 5681 5685 5684 5679 5676 5668 5658 5657 5654 5655 5659 5660 5659 5658 5658 5658 5658 5659 5659 5659 5659 5659 5658 5658 5658 5658 5658 5657 5657 5657 5657 5657 5657 5656 5656 5656 5655 5654 5654 5653
5687 5686 5682 5670 5661 5664 5669 5672 5674 5674 5676 5677 5673 5663 5654 5651 5650 5650 5652 5654 5655 5654 5654 5653 5652 5653 5653 5653 5653 5653 5653 5653 5653 5653 5653 5653 5652 5652 5652 5652 5652 5651 5651 5651 5651 5650 5649 5649 5649
5682 5675 5663 5657 5657 5660 5667 5669 5670 5666 5666 5667 5666 5655 5644 5644 5646 5646 5647 5649 5649 5649 5648 5647 5647 5647 5647 5647 5648 5648 5648 5647 5647 5647 5647 5647 5647 5646 5646 5646 5646 5646 5646 5645 5645 5645 5644 5644 5643
5670 5669 5654 5649 5650 5655 5660 5662 5663 5661 5660 5659 5657 5649 5638 5639 5639 5640 5642 5642 5643 5643 5642 5641 5641 5641 5641 5641 5642 5642 5642 5642 5641 5641 5641 5641 5641 5641 5640 5640 5640 5640 5640 5640 5639 5639 5638 5638 5637
5659 5655 5650 5649 5646 5647 5650 5655 5653 5652 5649 5648 5651 5641 5633 5633 5633 5634 5635 5636 5636 5636 5636 5635 5635 5635 5635 5635 5635 5635 5635 5635 5636 5635 5635 5635 5635 5635 5635 5634 5634 5634 5634 5633 5633 5633 5632 5632 5631
5659 5653 5646 5644 5642 5640 5644 5647 5647 5645 5640 5643 5642 5634 5627 5626 5628 5628 5629 5629 5629 5630 5630 5630 5630 5629 5629 5629 5629 5629 5629 5629 5630 5630 5629 5630 5629 5629 5629 5628 5628 5628 5628 5627 5627 5626 5626 5625 5625
5656 5641 5634 5636 5637 5635 5638 5637 5637 5639 5635 5633 5630 5628 5624 5622 5621 5620 5620 5621 5621 5622 5623 5623 5624 5624 5624 5624 5624 5623 5623 5624 5624 5624 5624 5624 5624 5624 5623 5622 5622 5621 5621 5621 5621 5620 5619 5619 5618
5641 5628 5625 5631 5635 5631 5631 5630 5628 5628 5624 5622 5619 5618 5616 5614 5613 5611 5610 5611 5612 5614 5615 5617 5617 5618 5618 5618 5618 5618 5618 5618 5618 5618 5618 5618 5618 5618 5617 5616 5616 5615 5614 5614 5614 5614 5613 5612 5611
5628 5620 5622 5626 5629 5627 5625 5623 5623 5620 5616 5616 5613 5609 5606 5605 5604 5604 5603 5604 5605 5607 5608 5610 5611 5611 5611 5612 5611 5611 5611 5612 5612 5612 5612 5613 5612 5612 5611 5610 5610 5609 5608 5607 5607 5606 5606 5605 5604
5616 5615 5618 5617 5618 5619 5618 5616 5614 5612 5608 5611 5608 5604 5600 5597 5597 5597 5597 5597 5598 5599 5601 5602 5604 5604 5604 5605 5605 5605 5605 5605 5605 5605 5606 5606 5606 5606 5605 5604 5603 5602 5601 5600 5600 5598 5598 5597 5596
5607 5605 5608 5609 5610 5610 5610 5607 5606 5602 5604 5604 5600 5597 5594 5592 5592 5592 5592 5591 5592 5593 5594 5595 5597 5597 5598 5598 5597 5598 5599 5599 5598 5598 5599 5599 5599 5599 5598 5597 5596 5595 5594 5593 5592 5591 5590 5589 5588
5600 5600 5600 5602 5603 5604 5602 5600 5599 5596 5600 5597 5593 5590 5588 5586 5587 5587 5586 5585 5586 5587 5588 5589 5590 5591 5591 5591 5590 5591 5592 5592 5592 5592 5592 5591 5591 5591 5590 5589 5588 5587 5586 5585 5584 5583 5581 5580 5578
5596 5593 5594 5595 5597 5597 5597 5592 5593 5594 5594 5590 5588 5586 5583 5581 5581 5580 5580 5580 5581 5581 5582 5583 5584 5584 5584 5584 5584 5584 5584 5584 5584 5584 5584 5583 5583 5583 5583 5582 5581 5580 5579 5578 5577 5575 5573 5571 5569
5594 5592 5589 5590 5593 5593 5591 5587 5588 5589 5588 5585 5583 5581 5578 5576 5576 5576 5576 5575 5576 5576 5576 5577 5577 5577 5576 5576 5576 5576 5577 5576 5576 5575 5576 5575 5575 5575 5575 5574 5573 5572 5571 5570 5569 5567 5564 5562 5560
5590 5589 5588 5585 5589 5589 5587 5583 5584 5585 5585 5582 5580 5577 5575 5573 5572 5571 5571 5571 5571 5571 5570 5570 5570 5571 5570 5569 5569 5569 5569 5568 5567 5567 5567 5567 5566 5566 5566 5566 5565 5564 5563 5562 5560 5558 5555 5553 5550
5585 5587 5586 5582 5582 5583 5580 5578 5580 5580 5581 5579 5577 5574 5572 5571 5569 5568 5567 5567 5567 5566 5566 5566 5565 5564 5563 5562 5561 5561 5561 5560 5559 5558 5558 5558 5558 5557 5557 5557 5556 5555 5554 5552 5550 5548 5546 5543 5540
5584 5584 5580 5578 5577 5576 5576 5576 5577 5578 5576 5574 5574 5572 5570 5569 5568 5566 5563 5562 5561 5561 5560 5560 5559 5557 5556 5556 5554 5553 5552 5551 5551 5550 5550 5549 5549 5548 5548 5548 5547 5546 5544 5543 5540 5538 5536 5532 5530
5579 5577 5575 5573 5574 5572 5572 5573 5577 5578 5575 5574 5572 5570 5568 5565 5564 5562 5560 5558 5557 5556 5555 5554 5553 5552 5550 5549 5548 5546 5545 5544 5543 5542 5541 5540 5540 5539 5539 5538 5538 5536 5535 5533 5530 5528 5525 5522 5520
5570 5570 5568 5565 5566 5571 5569 5572 5577 5577 5576 5574 5572 5570 5568 5565 5561 5559 5557 5555 5553 5552 5551 5550 5548 5546 5545 5543 5541 5539 5537 5536 5536 5534 5533 5533 5532 5531 5530 5530 5529 5527 5526 5523 5520 5518 5515 5512 5509
5563 5561 5562 5561 5560 5562 5568 5562 5576 5577 5573 5572 5570 5567 5565 5564 5562 5558 5554 5552 5549 5547 5545 5544 5542 5540 5539 5537 5535 5533 5531 5529 5529 5528 5526 5525 5524 5523 5522 5521 5520 5518 5516 5514 5511 5508 5505 5502 5498
5556 5559 5559 5559 5558 5557 5562 5559 5570 5578 5573 5572 5570 5567 5564 5562 5559 5556 5553 5549 5546 5543 5540 5538 5536 5535 5533 5531 5529 5526 5525 5523 5523 5521 5520 5518 5517 5516 5514 5513 5512 5510 5507 5505 5502 5499 5496 5492 5488
5552 5554 5556 5554 5551 5548 5561 5557 5565 5573 5578 5577 5572 5568 5564 5560 5556 5553 5550 5546 5542 5538 5535 5533 5531 5529 5527 5525 5523 5521 5519 5517 5515 5513 5511 5510 5509 5508 5506 5505 5503 5501 5498 5496 5493 5489 5486 5482 5478
5552 5550 5547 5547 5544 5550 5559 5555 5563 5579 5579 5576 5571 5566 5562 5558 5552 5548 5545 5541 5537 5534 5530 5528 5526 5524 5521 5519 5516 5514 5513 5510 5508 5506 5504 5503 5501 5500 5498 5496 5494 5493 5490 5487 5484 5480 5476 5472 5468
5549 5550 5543 5544 5546 5551 5549 5552 5567 5577 5575 5572 5568 5563 5559 5554 5549 5546 5542 5537 5533 5530 5527 5523 5521 5518 5516 5513 5511 5508 5506 5504 5502 5500 5499 5497 5494 5492 5489 5488 5486 5484 5481 5478 5474 5470 5466 5462 5458
5547 5543 5541 5537 5527 5528 5549 5564 5570 5571 5570 5567 5564 5559 5554 5550 5547 5542 5538 5533 5529 5526 5522 5519 5516 5513 5511 5508 5506 5503 5501 5499 5497 5494 5492 5490 5487 5485 5482 5480 5477 5475 5472 5468 5464 5460 5456 5452 5447
5538 5540 5535 5533 5531 5536 5555 5562 5563 5563 5565 5564 5561 5556 5552 5548 5543 5539 5534 5530 5525 5521 5518 5515 5512 5509 5506 5503 5501 5498 5496 5493 5490 5488 5485 5482 5480 5477 5475 5472 5469 5465 5462 5458 5454 5449 5445 5441 5437
5532 5533 5534 5532 5529 5531 5535 5555 5576 5571 5568 5563 5559 5555 5550 5545 5539 5535 5531 5526 5521 5516 5512 5510 5507 5504 5501 5498 5495 5492 5490 5487 5485 5482 5479 5475 5472 5470 5467 5464 5460 5456 5452 5448 5444 5439 5435 5431 5426
5530 5535 5531 5526 5524 5525 5529 5547 5571 5569 5566 5561 5555 5552 5547 5542 5536 5532 5528 5522 5517 5512 5508 5505 5503 5499 5496 5493 5490 5486 5484 5481 5478 5475 5472 5469 5466 5462 5459 5455 5452 5448 5443 5439 5434 5429 5425 5421 5416